Regional Weather Roundup
Issued by NWS

Home | Current Version | Previous Version | Graphics & Text | Print | Product List | Glossary On
Versions: 1 2 3 4 5 6 7 8 9 10 11 12 13 14 15 16 17 18 19 20 21 22 23 24 25 26 27
000
ASUS45 KCYS 232110
RWRWY

WYOMING REGIONAL WEATHER ROUNDUP
NATIONAL WEATHER SERVICE CHEYENNE WY
300 PM MDT MON MAY 23 2016

NOTE:  "FAIR" INDICATES FEW OR NO CLOUDS BELOW 12,000 FEET
WITH NO SIGNIFICANT WEATHER AND/OR OBSTRUCTIONS TO VISIBILITY.

WYZ001-232200-
YELLOWSTONE NATIONAL PARK

CITY           SKY/WX    TMP DP  RH WIND       PRES   REMARKS
LK YELLOWSTONE   N/A     40  26  57 MISG      29.94F
W YELLOWSTONE  NOT AVBL

$$
WYZ002>013-054>058-071-098>099-232200-
NORTHERN WYOMING

CITY           SKY/WX    TMP DP  RH WIND       PRES   REMARKS
JACKSON        MOSUNNY   54  27  35 SW6G13    29.90F
CODY           FAIR      57  25  28 W16G24    29.81S
GREYBULL       FAIR      67  20  16 VRB6G21   29.76F
WORLAND        FAIR      65  20  17 CALM      29.77F
SHERIDAN       FAIR      68  29  23 NW7       29.74S
BUFFALO        FAIR      65  27  23 VRB3      29.78S
GILLETTE       FAIR      67  23  19 W12G30    29.74S
HULETT         FAIR      70  23  17 SW17G28   29.75S
NEWCASTLE      FAIR      70  14  11 SW16G25   29.78S

$$
WYZ014>020-022>026-101>103-232200-
CENTRAL WYOMING

CITY           SKY/WX    TMP DP  RH WIND       PRES   REMARKS
BIG PINEY      FAIR      53  24  32 W16G28    29.94F
PINEDALE       LGT RAIN  45  30  57 S12G23    29.95S
DUBOIS         MOCLDY    48  28  46 NW12      29.89R
LANDER         FAIR      58  26  29 SW16G37   29.84R
RIVERTON       CLOUDY    59  19  21 W14       29.84S
CASPER         PTSUNNY   63  24  22 W21G33    29.83F
DOUGLAS        FAIR      68  28  22 W23G29    29.83F

$$
WYZ021-027>030-104>119-232200-
SOUTHERN WYOMING

CITY           SKY/WX    TMP DP  RH WIND       PRES   REMARKS
EVANSTON       CLOUDY    51  28  41 NW9       29.95S
KEMMERER         N/A     50  27  40 W15G28    29.96F
FORT BRIDGER   PTCLDY    52  34  50 CALM      29.99F
ROCK SPRINGS   PTSUNNY   56  24  29 W15G25    29.95S
DIXON          FAIR      62  26  24 W15G24    29.95S
RAWLINS        FAIR      60  21  22 SW17G23   29.93F
SARATOGA       FAIR      59  21  23 W9G26     29.94S
LARAMIE        FAIR      59  19  21 W16G28    29.91S
CHEYENNE       FAIR      62  36  37 SW14G25   29.90R
TORRINGTON     FAIR      73  24  16 W12G20    29.79F
PINE BLUFFS    FAIR      68  37  32 SW13G20   29.87S

$$




USA.gov is the U.S. government's official web portal to all federal, state and local government web resources and services.